INTELSAT 906 (IS-906)

Last updated on Wed Jul 09 2025 00:02:43 GMT+0000 (Coordinated Universal Time)

1 27513U 02041A 25189.21875076 .00000024 00000+0 00000+0 0 9990 2 27513 4.9263 77.1917 0003676 23.4227 328.7004 1.00273142 83575
UTC large
Height (km)
Speed (km/s)
/
Latitude / Longitude
Inclination (degrees)
Orbital Period (minutes)
Azimuth
Elevation
Range (km)
Doppler Factor

Next 0 passes for location: London (51.5072 / 0.1276)

Sorry there are no passes over London.